Weather observations for the past three days for
St Michael Airport
Imperial (Metric)
Date Time (akdt) Wind (mph) Vis. (mi.) Weather Sky Cond. Temperature (ºF) Relative Humidity Wind Chill (°F) Heat Index (°F) Pressure Precipitation (in)
Air Dwpt 6 hour altimeter (in) sea level (mb) 1 hr 3 hr 6 hr
Max. Min.
12 08:56 E 17 10.00 Overcast OVC080 53.1 48.9 86% 29.63 1003.4
12 07:56 E 13 10.00 Light Rain OVC070 52 48 86% 29.66 1004.2
12 06:56 E 9 10.00 Light Rain OVC065 52 48.9 89% 29.67 1004.6 0.01 0.01
12 05:56 E 8 10.00 Overcast FEW065 OVC095 53.1 48.9 86% 29.68 1005.2
12 04:56 E 10 10.00 Overcast SCT055 OVC085 53.1 50 89% 29.71 1005.9
12 03:56 E 6 10.00 Overcast OVC065 53.1 48.9 60.1 52 86% 29.73 1006.6
12 02:56 N 3 10.00 Overcast FEW045 BKN065 OVC090 52 51.1 97% 29.74 1007.0
12 01:56 NW 5 10.00 Overcast FEW040 SCT048 OVC065 53.1 50 89% 29.75 1007.5
12 00:56 W 7 10.00 Light Rain BKN065 BKN095 OVC110 54 51.1 90% 29.76 1007.7
11 23:56 NW 8 10.00 Overcast SCT060 OVC080 54 52 93% 29.76 1007.7
11 22:56 W 7 10.00 Overcast BKN048 OVC065 57 51.1 81% 29.76 1007.8
11 21:56 S 7 10.00 Overcast OVC070 60.1 48 63 59 65% 29.76 1007.7
11 20:56 S 10 10.00 Overcast BKN065 OVC080 61 48 63% 29.76 1007.7
11 19:56 SE 13 10.00 Overcast BKN070 OVC095 62.1 48 60% 29.76 1007.9
11 18:56 SE 14 10.00 Overcast FEW048 OVC080 63 46.9 56% 29.77 1008.1
11 17:56 S 13 10.00 Overcast FEW046 BKN060 OVC080 62.1 48 60% 29.78 1008.3
11 16:56 SE 14 10.00 Overcast FEW040 BKN060 OVC085 61 48 63% 29.79 1008.7
11 15:56 SE 14 10.00 Overcast FEW042 BKN070 OVC095 59 48 59 53.1 67% 29.8 1009.1
11 14:56 SE 15 10.00 Overcast SCT035 BKN045 OVC070 57.9 48 70% 29.8 1009.3
11 13:56 SE 13 10.00 Overcast FEW029 OVC038 57 48.9 74% 29.8 1009.2
11 12:56 S 10 10.00 Overcast OVC029 55.9 48.9 77% 29.8 1008.9
11 11:56 SE 10 10.00 Overcast BKN036 OVC095 55 48.9 80% 29.79 1008.8
11 10:56 SE 14 10.00 Overcast SCT026 SCT034 OVC040 55 50 83% 29.78 1008.5
11 09:56 E 10 10.00 Light Rain OVC039 53.1 50 53.1 50 89% 29.78 1008.3 0.09
11 08:56 SE 9 10.00 Light Rain OVC070 53.1 50 89% 29.77 1008.0 0.02
11 07:56 SE 7 10.00 Light Rain OVC065 51.1 50 96% 29.75 1007.7 0.02
11 06:56 SE 9 10.00 Light Rain OVC065 51.1 48.9 92% 29.75 1007.3 0.02 0.05
11 05:56 SE 7 10.00 Light Rain OVC060 50 48.9 96% 48 29.74 1007.0 0.02
11 04:56 SE 8 10.00 Light Rain OVC060 50 48.9 96% 47 29.73 1006.8 0.01
11 03:56 SE 9 10.00 Light Rain OVC070 51.1 48.9 54 51.1 92% 29.72 1006.3 0.02 0.05
11 02:56 SE 6 10.00 Light Rain OVC070 51.1 48.9 92% 29.71 1006.2
11 01:56 SE 9 10.00 Light Rain OVC070 52 48.9 89% 29.7 1005.6 0.01
11 00:56 SE 10 10.00 Light Rain OVC070 52 50 93% 29.69 1005.4 0.01 0.02
10 23:56 SE 10 10.00 Light Rain FEW060 OVC080 53.1 51.1 93% 29.67 1004.8 0.01
10 22:56 SE 10 10.00 Light Rain OVC080 53.1 51.1 93% 29.65 1004.2
10 21:56 S 9 10.00 Light Rain OVC070 54 52 55 54 93% 29.64 1003.7 0.01 0.04
10 20:56 S 8 10.00 Light Rain FEW023 BKN060 OVC075 55 53.1 93% 29.63 1003.3
10 18:56 S 10 10.00 Light Rain SCT023 BKN039 OVC070 55 53.1 93% 29.61 1002.7 0.01 0.02
10 17:56 S 7 10.00 Light Rain BKN024 BKN044 OVC065 55 52 90% 29.6 1002.3 0.01
10 16:56 S 9 10.00 Light Rain FEW015 BKN023 OVC060 54 52 93% 29.59 1002.1
10 15:56 S 10 10.00 Light Rain SCT019 BKN024 OVC060 55.9 51.1 57 54 84% 29.57 1001.4 0.01 0.03
10 14:56 S 12 10.00 Light Rain FEW015 BKN032 OVC042 54 53.1 97% 29.56 1001.0
10 13:56 S 17 G 22 7.00 Light Rain BKN025 BKN036 OVC044 55.9 51.1 84% 29.54 1000.5
10 12:56 E 7 10.00 Overcast BKN008 BKN011 OVC020 54 53.1 97% 29.53 1000.0 0.02 0.02
10 11:56 NE 6 9.00 Overcast BKN010 BKN016 OVC055 54 52 93% 29.52 999.7
10 10:56 S 6 10.00 Light Rain OVC028 55 50 83% 29.51 999.5
10 09:56 SE 6 10.00 Light Rain FEW043 OVC055 54 52 54 50 93% 29.5 999.2 0.06
10 08:56 SE 6 10.00 Light Rain FEW036 SCT047 OVC060 52 51.1 97% 29.49 998.7 0.01
10 07:56 Calm 10.00 Light Rain BKN036 BKN060 OVC075 51.1 50 96% 29.48 998.4 0.01
10 06:56 E 5 10.00 Light Rain FEW048 OVC070 50 50 100% 49 29.47 998.1 0.01 0.04
10 05:56 E 6 10.00 Light Rain FEW038 SCT048 OVC070 50 50 100% 48 29.47 998.1 0.01
10 04:56 E 5 10.00 Light Rain FEW023 BKN075 OVC085 50 48.9 96% 49 29.47 998.0 0.02
10 03:56 Calm 7.00 Light Rain BKN022 OVC029 50 50 51.1 50 100% 29.47 998.1 0.01 0.02
10 02:56 Calm 10.00 Overcast OVC024 50 48.9 96% 29.48 998.2
10 01:56 E 6 10.00 Overcast BKN022 OVC028 50 48.9 96% 48 29.47 998.1
10 00:56 E 7 10.00 Overcast OVC004 51.1 51.1 100% 29.47 998.2 0.01
09 23:56 E 6 10.00 Overcast OVC006 51.1 50 96% 29.48 998.3 0.01
09 22:56 NE 6 2.50 Light Rain Fog/Mist BKN008 OVC012 50 50 100% 48 29.48 998.3
09 21:56 E 6 10.00 Overcast OVC005 51.1 50 52 50 96% 29.48 998.2 0.05
09 20:56 NE 7 2.50 Light Rain Fog/Mist OVC005 50 50 100% 48 29.47 998.0 0.01
09 19:56 NE 7 6.00 Rain Fog/Mist OVC005 52 51.1 97% 29.47 998.1 0.01
09 18:56 NW 5 2.00 Light Rain Fog/Mist BKN009 OVC012 51.1 50 96% 29.47 998.1 0.03
09 17:56 W 6 8.00 Light Rain BKN011 BKN019 OVC038 52 50 93% 29.48 998.3 0.01
09 16:56 W 5 4.00 Light Rain Fog/Mist FEW005 BKN016 OVC024 50 50 100% 49 29.49 998.6 0.02
09 15:56 SW 6 10.00 Overcast BKN025 OVC035 51.1 48 51.1 48 89% 29.49 998.7
09 14:56 SW 7 8.00 Overcast FEW007 SCT015 OVC022 50 48.9 96% 48 29.5 998.9
09 13:56 S 7 5.00 Light Rain Fog/Mist BKN005 BKN011 OVC040 50 48.9 96% 48 29.5 999.0
09 12:56 SW 9 3.00 Fog/Mist BKN007 OVC011 50 48.9 96% 47 29.51 999.3
09 11:56 SW 7 10.00 Overcast BKN005 OVC010 48.9 48 97% 46 29.52 999.5
09 10:56 SW 9 4.00 Fog/Mist OVC005 48.9 48 97% 45 29.52 999.6
09 09:56 SW 10 2.50 Light Rain Fog/Mist BKN005 OVC019 48 48 48 46 100% 44 29.53 999.8 0.01
Date Time (akdt) Wind (mph) Vis. (mi.) Weather Sky Cond. Air Dwpt Max. Min. Relative Humidity Wind Chill (°F) Heat Index (°F) altimeter (in) sea level (mb) 1 hr 3 hr 6 hr
6 hour
Temperature (ºF) Pressure Precipitation (in)